sat.trackr.live / text

‹ back to catalog

ICEYE-X79

NORAD 69870 · 2026-156B

PAYLOAD ACTIVE UNKNOWN

§ Identity

Operator
Country
NETH
Launch date
2026-07-07
Launch site
AFWTR
Launch vehicle
Mass (kg)
RCS (m²)

External: N2YO · Heavens-Above · Gunter

§ Orbital elements

Epoch: 2026-09-19T23:57:28.385280Z

Period
96.52 min
Inclination
97.7433°
Eccentricity
0.0005148
Mean motion
14.91892243 rev/d
Perigee alt
588.4 km
Apogee alt
595.6 km
Semi-major
6,970.2 km
B*
1.8593e-4
RAAN
162.1772°
Arg perigee
261.4827°
Mean anomaly
98.5809°
Rev number
1,113

§ Raw data

ICEYE-X791 69870U 26156B   26262.99824520  .00001824  00000+0  18593-3 0  99902 69870  97.7433 162.1772 0005148 261.4827  98.5809 14.91892243 11137

JSON: /api/v1/satellites/69870 · /tle

For live sub-satellite position, see the globe view (requires WebGL).

§ Visibility from observer

Set your observer location to see the next 7 days of passes ≥ 10°. The values pass through the URL so the page stays shareable.

No JS? Fill the form by hand. The geolocation button needs JavaScript.